sat.trackr.live / text

‹ back to catalog

KUIPER-00169

NORAD 65782 · 2025-217W

PAYLOAD ACTIVE UNKNOWN

§ Identity

Operator
Country
US
Launch date
2025-09-25
Launch site
AFETR
Launch vehicle
Mass (kg)
RCS (m²)

External: N2YO · Heavens-Above · Gunter

§ Orbital elements

Epoch: 2026-05-25T00:52:38.231904Z

Period
97.30 min
Inclination
51.9024°
Eccentricity
0.0000897
Mean motion
14.79936748 rev/d
Perigee alt
628.9 km
Apogee alt
630.2 km
Semi-major
7,007.7 km
B*
1.9406e-4
RAAN
55.5058°
Arg perigee
93.7021°
Mean anomaly
266.4044°
Rev number
3,632

§ Raw data

KUIPER-001691 65782U 25217W   26145.03655361  .00001259  00000+0  19406-3 0  99912 65782  51.9024  55.5058 0000897  93.7021 266.4044 14.79936748 36323

JSON: /api/v1/satellites/65782 · /tle

For live sub-satellite position, see the globe view (requires WebGL).

§ Visibility from observer

Set your observer location to see the next 7 days of passes ≥ 10°. The values pass through the URL so the page stays shareable.

No JS? Fill the form by hand. The geolocation button needs JavaScript.